Have a Safe July 4th! 

Flight Track Log - Related Links

Times and Time Zones

All times are in EDT time to prevent confusion due to time zone crossing. See the AWI3767 flight status page for this flight to view local times or setup timezone preferences in your user account.

Time Position Orientation Groundspeed Altitude Reporting Facility
EDT Latitude Longitude Course Direction KTS MPH feet Rate Location/Type
Thu 05:22:42 PM 38.8833 -77.0667 225° Southwest 185 213 1,900  Level Potomac TRACON
Thu 05:23:42 PM 38.9167 -77.1167 311° West 208 239 4,800 2,650 Climbing Potomac TRACON
Thu 05:24:00 PM 38.6643 -77.2360 221° Southwest  Level FlightAware Approximate
Thu 05:24:42 PM 38.9833 -77.1667 330° Northwest 252 290 7,200  Level Potomac TRACON
Thu 05:25:00 PM 38.6008 -77.3075 221° Southwest  Level FlightAware Approximate
Thu 05:25:42 PM 38.9333 -77.2500 232° Southwest 289 333 9,700  Level Potomac TRACON
Thu 05:26:00 PM 38.5372 -77.3790 221° Southwest  Level FlightAware Approximate
Thu 05:26:42 PM 38.8667 -77.3000 210° Southwest 324 373 11,300  Level Potomac TRACON
Thu 05:27:00 PM 38.4773 -77.4554 225° Southwest  Level FlightAware Approximate
Thu 05:28:00 PM 38.4177 -77.5321 225° Southwest  Level FlightAware Approximate
Thu 05:28:18 PM 38.7494 -77.4203 219° Southwest 374 430 12,500  Level Washington Center
Thu 05:29:19 PM 38.6667 -77.5033 218° Southwest 381 438 14,200 1,261 Climbing Washington Center
Thu 05:30:17 PM 38.5756 -77.5967 219° Southwest 386 444 15,000 1,017 Climbing Washington Center
Thu 05:31:17 PM 38.4908 -77.6819 218° Southwest 386 444 16,200 1,140 Climbing Washington Center
Thu 05:32:18 PM 38.4017 -77.7694 218° Southwest 391 450 17,300 1,100 Climbing Washington Center
Thu 05:33:17 PM 38.3144 -77.8594 219° Southwest 402 463 18,400 1,109 Climbing Washington Center
Thu 05:34:17 PM 38.2253 -77.9467 218° Southwest 402 463 19,500 1,091 Climbing Washington Center
Thu 05:35:18 PM 38.1339 -78.0336 217° Southwest 402 463 20,600 1,082 Climbing Washington Center
Thu 05:36:19 PM 38.0444 -78.1203 217° Southwest 402 463 21,700 1,059 Climbing Washington Center
Thu 05:37:17 PM 37.9697 -78.1969 219° Southwest 402 463 22,700 1,059 Climbing Washington Center
Thu 05:38:18 PM 37.8675 -78.2906 216° Southwest 403 464 23,800 934 Climbing Washington Center
Thu 05:39:19 PM 37.7758 -78.3794 217° Southwest 408 470 24,600 793 Climbing Washington Center
Thu 05:40:19 PM 37.6819 -78.4678 217° Southwest 413 475 25,400 645 Climbing Washington Center
Thu 05:41:20 PM 37.5903 -78.5508 216° Southwest 418 481 25,900 756 Climbing Washington Center
Thu 05:42:18 PM 37.5047 -78.6364 218° Southwest 423 487 26,900 908 Climbing Washington Center
Thu 05:43:19 PM 37.4108 -78.7217 216° Southwest 423 487 27,700 857 Climbing Washington Center
Thu 05:44:17 PM 37.3189 -78.8092 217° Southwest 423 487 28,600 958 Climbing Washington Center
Thu 05:45:18 PM 37.2225 -78.8939 215° Southwest 423 487 29,600 738 Climbing Washington Center
Thu 05:46:19 PM 37.1325 -78.9786 217° Southwest 423 487 30,100 744 Climbing Washington Center
Thu 05:47:19 PM 37.0297 -79.0731 216° Southwest 423 487 31,100 661 Climbing Washington Center
Thu 05:48:17 PM 36.9397 -79.1572 217° Southwest 423 487 31,400 458 Climbing Washington Center
Thu 05:49:17 PM 36.8453 -79.2436 216° Southwest 423 487 32,000 298 Climbing Washington Center
Thu 05:50:18 PM 36.7528 -79.3300 217° Southwest 423 487 32,000  Level Washington Center
Thu 05:51:18 PM 36.6583 -79.4161 216° Southwest 423 487 32,000  Level Washington Center
Thu 05:52:19 PM 36.5744 -79.4947 217° Southwest 423 487 32,000 -750 Level Washington Center
Thu 05:53:58 PM 36.4011 -79.6511 216° Southwest 447 514 30,000 -755 Descending Atlanta Center
Thu 05:54:58 PM 36.3061 -79.7361 216° Southwest 447 514 30,000  Level Atlanta Center
Thu 05:55:58 PM 36.2192 -79.8128 215° Southwest 442 509 30,000  Level Atlanta Center
Thu 05:56:58 PM 36.1261 -79.9000 217° Southwest 442 509 30,000  Level Atlanta Center
Thu 05:57:58 PM 36.0267 -79.9847 215° Southwest 442 509 30,000  Level Atlanta Center
Thu 05:58:58 PM 35.9272 -80.0639 213° Southwest 437 503 30,000  Level Atlanta Center
Thu 05:59:58 PM 35.8153 -80.1489 212° Southwest 431 496 30,000 -500 Level Atlanta Center
Thu 06:00:58 PM 35.7153 -80.2253 212° Southwest 426 490 29,000 -1,250 Descending Atlanta Center
Thu 06:01:58 PM 35.6136 -80.3067 213° Southwest 432 497 27,500 -1,500 Descending Atlanta Center
Thu 06:02:58 PM 35.5158 -80.3850 213° Southwest 432 497 26,000 -1,550 Descending Atlanta Center
Thu 06:03:58 PM 35.4197 -80.4531 210° Southwest 416 479 24,400 -1,000 Descending Atlanta Center
Thu 06:04:58 PM 35.3258 -80.5258 212° Southwest 410 472 24,000 -750 Descending Atlanta Center
Thu 06:05:58 PM 35.2339 -80.5983 213° Southwest 398 458 22,900 -1,200 Descending Atlanta Center
Thu 06:06:58 PM 35.1522 -80.6578 211° Southwest 393 452 21,600 -1,400 Descending Atlanta Center
Thu 06:07:58 PM 35.0664 -80.7247 213° Southwest 385 443 20,100 -519 Descending Atlanta Center
Thu 06:10:03 PM 34.8797 -80.8606 211° Southwest 384 442 20,000 -32 Descending Jacksonville Center
Thu 06:11:03 PM 34.7953 -80.9258 212° Southwest 370 426 20,000  Level Jacksonville Center
Thu 06:12:03 PM 34.7128 -80.9858 211° Southwest 354 407 20,000  Level Jacksonville Center
Thu 06:13:03 PM 34.6344 -81.0456 212° Southwest 360 414 20,000  Level Jacksonville Center
Thu 06:14:03 PM 34.5497 -81.1078 211° Southwest 355 409 20,000  Level Jacksonville Center
Thu 06:15:03 PM 34.4672 -81.1675 211° Southwest 355 409 20,000  Level Jacksonville Center
Thu 06:16:03 PM 34.3847 -81.2269 211° Southwest 355 409 20,000 -50 Level Jacksonville Center
Thu 06:17:03 PM 34.3000 -81.2914 212° Southwest 355 409 19,900 -900 Descending Jacksonville Center
Thu 06:18:03 PM 34.2172 -81.3506 211° Southwest 355 409 18,200 -1,850 Descending Jacksonville Center
Thu 06:19:03 PM 34.1367 -81.4122 212° Southwest 355 409 16,200 -1,900 Descending Jacksonville Center
Thu 06:20:03 PM 34.0539 -81.4739 212° Southwest 355 409 14,400 -1,800 Descending Jacksonville Center
Thu 06:22:00 PM 33.8853 -81.5814 220° Southwest  Level FlightAware Approximate
Thu 06:29:00 PM 33.3667 -81.9500 203° Southwest  Level FlightAware Approximate
Thu 06:30:00 PM 33.3699 -81.9645 203° Southwest  Level Estimated
Thu 06:31:00 PM 33.3699 -81.9645 203° Southwest  Level Estimated
Thu 06:32:00 PM 33.3699 -81.9645 203° Southwest  Level Estimated
Thu 06:33:00 PM 33.3699 -81.9645 203° Southwest  Level Estimated

Login

Don't have an account? Register now (free) for customized features, flight alerts, and more!